星链-35042 (STARLINK-35042)

导读 | 豆包AI

STARLINK-35042是美国SpaceX公司星链(Starlink)互联网卫星星座的一员,于2025年9月3日发射入轨。星链星座旨在打造全球覆盖的低轨宽带网络,为偏远地区提供高速互联网接入。该卫星采用平板设计,搭载氪工质霍尔推进器,具备自主避撞能力,寿命末期可主动离轨并在大气层烧毁,减少空间碎片影响,服务全球互联互通。

Basic Information
目录编号:
65481
目录名称:
STARLINK-35042
国际标识:
2025-195Z
轨道中心:
EARTH
卫星名称:
星链-35042
卫星全名:
星链-35042 (STARLINK-35042)
卫星状态:
在轨 (已飞行192 天)
发射日期:
2025-09-03 UTC
国别 :
美国 (US)
星等 :
--
Orbit Information
数据来源 国际轨道数据 AOE轨道数据
星历时间 2026-03-13T19:58:42+0800
23小时前
查看轨道信息
2026-03-10T08:00:00+0800
4天前
查看轨道信息
半长轴 6853.294km 6853.387km
偏心率 0.0001066 0.0000705
轨道倾角 53.159° 53.161°
近地点辐角 92.382° 77.708°
升交点赤经 240.715° 256.969°
平近点角 267.730° 76.193°
近地点 474.426km 474.766km
远地点 475.888km 475.734km
周期 94.104分钟 94.106分钟
每日圈数 15.302197 15.301884
Detailed Information
固有亮度:
5
最大亮度:
2.5
卫星平台:
Starlink V1.0
覆盖范围:
全球
运营商:
太空探索技术公司
运营商所在国:
美国
制造商(研发单位):
太空探索技术公司
制造商所在国:
美国
使用方式:
暂无
Satellite Introduction
Starlink 计划是 SpaceX 推出的全球卫星互联网项目,通过发射低轨道卫星,为全球尤其是偏远地区提供高速、低延迟的互联网服务。自 2019 年起,Starlink 已部署数千颗卫星,旨在缩小全球数字鸿沟,推动互联网普及。该项目还为军事、航空等行业提供通信支持,带来广泛经济效益。
2D Orbit Map
3D Orbit Map
Orbit Altitude Analysis Chart
Orbit Inclination Analysis Chart
Orbit Comprehensive Analysis Chart
View Comprehensive Chart